sat.trackr.live / text

‹ back to catalog

STARLINK-34131

NORAD 64182 · 2025-113N

PAYLOAD ACTIVE UNKNOWN

§ Identity

Operator
Country
US
Launch date
2025-05-28
Launch site
AFETR
Launch vehicle
Mass (kg)
RCS (m²)

Purposes: comms

External: N2YO · Heavens-Above · Gunter

§ Orbital elements

Epoch: 2026-05-25T03:51:27.650880Z

Period
94.10 min
Inclination
53.1566°
Eccentricity
0.0001216
Mean motion
15.30210925 rev/d
Perigee alt
474.3 km
Apogee alt
476.0 km
Semi-major
6,853.3 km
B*
4.6215e-4
RAAN
95.8897°
Arg perigee
77.9744°
Mean anomaly
282.1393°
Rev number
5,673

§ Raw data

STARLINK-341311 64182U 25113N   26145.16073670  .00013357  00000+0  46215-3 0  99902 64182  53.1566  95.8897 0001216  77.9744 282.1393 15.30210925 56730

JSON: /api/v1/satellites/64182 · /tle

For live sub-satellite position, see the globe view (requires WebGL).

§ Visibility from observer

Set your observer location to see the next 7 days of passes ≥ 10°. The values pass through the URL so the page stays shareable.

No JS? Fill the form by hand. The geolocation button needs JavaScript.